Location: Guferjoch
(46.7462°N, 8.4506°E)
Time: 13:05:35
(UTC+00:00)

BREEZE-M DEB (TANK) - Pass Details

Date: 14 July 2020
Orbit: 427 x 13238 km, 46.0° (Epoch: 06 August)

Event Time Altitude Azimuth Distance (km) Brightness Sun altitude
Rises 00:04:29 0° 253° (WSW) 7,264 8.3 -21.2°
Reaches altitude 10° 00:11:03 10° 252° (WSW) 4,625 7.2 -21.1°
Maximum altitude 00:20:23 73° 170° (S) 850 3.5 -20.8°
Drops below altitude 10° 00:23:53 10° 85° (E) 1,795 5.6 -20.6°
Sets 00:25:23 0° 83° (E) 2,504 6.4 -20.6°
